This demonstration page uses our WeatherBlox Daily Observations layout. Learn more.

Left ArrowRight Arrow

36.17497, -115.13722

Hourly Observations for January 15, 2019

Temp ( °F °C ) Dew Point ( °F °C ) Humidity (%) Winds ( mph kmh ) Pressure ( in mb ) Visibility ( mi km ) Precip ( " mm )
12:06 am 00:06 Cloudy 45 7.2 43 6.1 93 93 SW 7 11 30.09 1019 10 16 0.00 0.00
12:53 am 00:53 Cloudy 46 7.8 43 6.1 89 89 S 5 7 30.09 1019 10 16 0.00 0.00
1:53 am 01:53 Cloudy 46 7.8 43 6.1 89 89 S 6 9 30.10 1019 10 16 0.00 0.00
2:36 am 02:36 Cloudy 46 7.8 43 6.1 89 89 S 6 9 30.06 1018 10 16 0.00 0.00
2:48 am 02:48 Cloudy with Light Rain 46 8 43 6 87 87 S 5 7 30.06 1018 10 16 0.00 0.03
2:53 am 02:53 Cloudy 46 7.8 43 6.1 89 89 S 5 7 30.09 1019 10 16 0.00 0.03
3:06 am 03:06 Cloudy 46 7.8 44 6.7 93 93 S 5 7 30.06 1018 10 16 0.00 0.00
3:53 am 03:53 Cloudy 46 7.8 43 6.1 89 89 S 6 9 30.07 1018 10 16 0.00 0.00
4:53 am 04:53 Cloudy 46 7.8 44 6.7 93 93 S 7 11 30.08 1019 10 16 0.00 0.00
5:53 am 05:53 Cloudy 46 7.8 44 6.7 93 93 S 5 7 30.09 1019 9 14 0.00 0.00
6:35 am 06:35 Cloudy 46 7.8 44 6.7 93 93 SE 6 9 30.06 1018 10 16 0.00 0.00
6:42 am 06:42 Cloudy 46 7.8 44 6.7 93 93 SE 7 11 30.06 1018 10 16 0.00 0.00
6:53 am 06:53 Cloudy 46 7.8 44 6.7 93 93 SSE 7 11 30.10 1019 10 16 0.00 0.00
7:09 am 07:09 Cloudy 47 8.3 44 6.7 90 90 SSE 7 11 30.09 1019 10 16 0.00 0.00
7:53 am 07:53 Cloudy with Light Rain 47 8.3 44 6.7 90 90 SSE 10 17 30.11 1020 10 16 0.00 0.03
8:31 am 08:31 Cloudy 47 8.3 44 6.7 90 90 SE 9 15 30.09 1019 10 16 0.01 0.25
8:53 am 08:53 Cloudy 47 8.3 44 6.7 90 90 SE 9 15 30.12 1020 10 16 0.01 0.25
9:14 am 09:14 Cloudy with Light Rain 47 8.3 44 6.7 90 90 SE 7 11 30.09 1019 10 16 0.00 0.03
9:43 am 09:43 Cloudy with Light Rain 47 8.3 45 7.2 93 93 Calm 30.09 1019 10 16 0.00 0.03
9:53 am 09:53 Cloudy with Light Rain 47 8.3 44 6.7 90 90 SSE 10 17 30.14 1021 10 16 0.00 0.03
10:02 am 10:02 Cloudy with Light Rain 47 8.3 44 6.7 90 90 SSE 10 17 30.09 1019 10 16 0.00 0.03
10:53 am 10:53 Cloudy with Light Rain 48 8.9 45 7.2 89 89 SE 9 15 30.11 1020 10 16 0.01 0.25
11:13 am 11:13 Cloudy with Light Rain 48 8.9 45 7.2 89 89 SE 10 17 30.06 1018 7 11 0.01 0.25
11:32 am 11:32 Cloudy with Light Rain 48 8.9 45 7.2 89 89 SE 9 15 30.06 1018 8 13 0.02 0.51
11:49 am 11:49 Cloudy with Light Rain 48 9 45 7 87 87 SE 9 15 30.06 1018 10 16 0.02 0.51
11:53 am 11:53 Cloudy with Light Rain 48 8.9 45 7.2 89 89 ESE 7 11 30.08 1019 10 16 0.02 0.51
12:53 pm 12:53 Cloudy with Light Rain 48 8.9 46 7.8 93 93 ESE 8 13 30.06 1018 8 13 0.03 0.76
1:53 pm 13:53 Cloudy with Light Rain 48 8.9 46 7.8 93 93 ESE 10 17 30.05 1018 6 10 0.04 1.02
2:53 pm 14:53 Cloudy with Light Rain 48 8.9 48 8.9 100 100 E 7 11 30.06 1018 8 13 0.07 1.78
3:05 pm 15:05 Cloudy with Light Rain 48 8.9 48 8.9 100 100 E 7 11 30.03 1017 7 11 0.01 0.25
3:40 pm 15:40 Cloudy with Rain 48 8.9 48 8.9 100 100 E 6 9 30.03 1017 4 6 0.06 1.52
3:53 pm 15:53 Cloudy with Light Rain 48 8.9 48 8.9 100 100 ENE 6 9 30.06 1018 4 6 0.08 2.03
3:57 pm 15:57 Cloudy with Light Rain 48 8.9 48 8.9 100 100 ENE 5 7 30.03 1017 4 6 0.01 0.25
4:09 pm 16:09 Cloudy with Heavy Rain 48 8.9 48 8.9 100 100 NE 3 6 30.03 1017 2 3 0.06 1.52
4:14 pm 16:14 Cloudy with Heavy Rain 48 8.9 48 8.9 100 100 Calm 30.03 1017 1 2 0.11 2.79
4:26 pm 16:26 Cloudy with Rain 48 8.9 48 8.9 100 100 ENE 3 6 30.03 1017 3 5 0.18 4.57
4:53 pm 16:53 Cloudy with Light Rain 48 8.9 48 8.9 100 100 Calm 30.06 1018 3 5 0.21 5.33
5:00 pm 17:00 Cloudy with Light Rain 48 8.9 47 8.3 96 96 SSE 6 9 30.03 1017 9 14 0.00 0.03
5:10 pm 17:10 Cloudy 48 8.9 47 8.3 96 96 SSE 6 9 30.03 1017 10 16 0.01 0.25
5:22 pm 17:22 Cloudy 48 8.9 47 8.3 96 96 SE 5 7 30.03 1017 10 16 0.01 0.25
5:53 pm 17:53 Cloudy 48 8.9 47 8.3 96 96 SE 6 9 30.07 1018 10 16 0.01 0.25
6:05 pm 18:05 Cloudy 48 8.9 46 7.8 93 93 SE 6 9 30.06 1018 10 16 0.00 0.00
6:40 pm 18:40 Mostly Cloudy 47 8.3 45 7.2 93 93 SE 6 9 30.06 1018 10 16 0.00 0.00
6:53 pm 18:53 Mostly Cloudy 47 8.3 45 7.2 93 93 SSE 5 7 30.09 1019 10 16 0.00 0.00
7:09 pm 19:09 Cloudy 47 8.3 45 7.2 93 93 SE 5 7 30.06 1018 10 16 0.00 0.00
7:53 pm 19:53 Cloudy with Light Rain 47 8.3 45 7.2 93 93 ESE 6 9 30.09 1019 10 16 0.00 0.03
8:13 pm 20:13 Cloudy with Light Rain 47 8.3 46 7.8 97 97 SE 3 6 30.06 1018 10 16 0.00 0.03
8:42 pm 20:42 Cloudy with Light Rain 47 8.3 46 7.8 97 97 SE 3 6 30.06 1018 10 16 0.00 0.03
8:53 pm 20:53 Cloudy with Light Rain 47 8.3 46 7.8 97 97 SE 3 6 30.10 1019 10 16 0.01 0.25
9:53 pm 21:53 Cloudy with Light Rain 47 8.3 46 7.8 97 97 ESE 6 9 30.12 1020 10 16 0.02 0.51
10:38 pm 22:38 Cloudy 47 8.3 46 7.8 97 97 SE 8 13 30.09 1019 10 16 0.01 0.25
10:53 pm 22:53 Cloudy 47 8.3 46 7.8 97 97 SE 7 11 30.13 1020 10 16 0.01 0.25
11:53 pm 23:53 Mostly Cloudy 46 7.8 45 7.2 96 96 S 9 15 30.11 1020 7 11 0.00 0.00

Powered by AerisWeather